Погода в Маме

Погода в Маме : погода сейчас, прогноз погоды и архив. Всё, что Вы хотите узнать о погоде в Маме!

Поиск расширенной информации на нашем сайте:

Другие новости

Новости СМИ2

Главная страница сайта

Новости сайта

03.07.2017

Напоминаем, что на нашем специализированном сайте Метеоцентр.Азия вы можете получить высокодетализированные автоматические прогнозы погоды по пунктам России, СНГ и мира в авиационном формате (включающие направление и скорость ветра, видимость, явления погоды, количество и форму облачности, нижнюю и верхнюю границу облачности).

Рекомендуем: Подбор авто.

Погода в Маме - сегодня

Время (UTC), дата Ветер
(°,м/с) 
Видим.   Явления Облачность Т
(°С)
Тd
(°С)
f(%) Тe
(°С)
Pmin
(гПа)
dP
(гПа)
Po
(мм)
O2
(г/м3)
Тmin Tmax R s Состояние
почвы
03 20.07.17 160 (Ю) 20000 м    3/3 1500 м кучево-дожд. 
[Cb cap]
+20 +12.4 62 +25  1008.7  -2  737  274           
06 20.07.17 050 (СВ) 20000 м    3/3 1500 м кучево-дожд. 
[Cb cap]
+26.2 +9.8 36 +27  1006.3  -1.8  736  269           
09 20.07.17 тихо ()   20000 м    4/4 1000 м кучево-дожд. 
[Cb cap]
+25 +11.4 43 +28  1005.4  -1  735  269           
12 20.07.17 230 (ЮЗ) 20000 м    ясно 
+19.7 +15.1 75 +30  1005.8  735  273    +27.4       
15 20.07.17 тихо ()   20000 м    ясно 
+12.1 +11.1 94 +15  1008.4  1.7  736  282           
18 20.07.17 тихо ()   20000 м    ясно 
+9.7 +9.1 96 +10  1008.9  0.3  737  285           
21 20.07.17 тихо ()   10 км    6/4 600 м 
[St]
+9.5 +9.1 97 +10  1009.5  0.6  737  285           
00 21.07.17 140 (ЮВ) 20000 м    ясно 
+12.9 +10.4 85 +16  1008.4  -0.8  736  281  +9.1         
03 21.07.17 340 (С) 20000 м    5/3 1500 м средняя, верхняя 
[Cu med, cong|Ac trans|Ci fib]
+20.1 +12.3 61 +25  1005.8  -1.8  735  273           
06 21.07.17 270 (З) 20000 м  {ливн. осадки}  8/4 1000 м кучево-дожд., средняя, верхняя 
[Cb cap|Ac trans|Ci fib]
+22.4 +13.8 58 +30  1004.3  -1.3  734  271           
09 21.07.17 340 (С) 20000 м    8/3 1000 м кучево-дожд., верхняя 
[Cb cap|Ci fib]
+20.2 +13.4 65 +27  1004.5  734  273           
12 21.07.17 320 (СЗ) 20000 м    8/3 1000 м кучево-дожд., средняя, верхняя 
[Cb cap|Ac trans|Ci fib]
+19.2 +12.6 66 +24  1005.9  1.3  735  274    +24.8  0.0     
15 21.07.17 310 (СЗ) 5{10}  20000 м    10/6 1320 м кучево-дожд., верхняя 
[Cb cap|Ci ing]
+14.3 +11.1 81 +17  1009.4  737  280           
18 21.07.17 340 (С) 3{10}  20000 м    10/8 1320 м кучево-дожд., средняя 
[Cb cap|Ac As]
+13.4 +12.3 93 +18  1009.7  0.2  737  281           
21 21.07.17 310 (СЗ) 20000 м    10/6 1320 м кучево-дожд., средняя 
[Cb cap|Ac As]
+12.3 +11.9 97 +16  1011.2  1.3  738  282           
00 22.07.17 320 (СЗ) 20000 м  {ливн. осадки}  10/8 1300 м кучево-дожд., средняя 
[Cb cap|Ac As]
+13.7 +11.1 84 +16  1012.2  1.1  739  282  +12.1    0.4     
03 22.07.17 330 (СЗ) 20000 м    10/8 1320 м кучево-дожд., средняя 
[Cb cap|Ac As]
+14.9 +11 77 +18  1013.8  1.6  740  281           
06 22.07.17 300 (СЗ) 20000 м    10/6 1350 м кучево-дожд., средняя, верхняя 
[Cb cap|Ac trans|Ci fib]
+18.7 +9.4 55 +20  1014  0.6  741  278           
09 22.07.17 120 (ЮВ) 20000 м  в посл. час ливневой дождь  6/5 1000 м кучево-дожд., верхняя 
[Cb cap|Ci fib]
+20.2 +9.8 51 +21  1013.6  -0.2  741  276           
12 22.07.17 250 (З) 20000 м  {ливн. осадки}  3/3 1000 м кучево-дожд. 
[Cb cap]
+16.2 +11.4 73 +21  1014  741  280    +20.7  0.0     
15 22.07.17 тихо ()   20000 м    3/0 средняя 
[Ac trans]
+9 +8 93 +9  1016  1.3  742  288           
18 22.07.17 тихо ()   20000 м    1/0 средняя 
[Ac trans]
+5.8 +5.3 97 +6  1017.4  743  292           
21 22.07.17 тихо ()   4000 м  дымка  10/10 500 м 
[St]
+7.3 +7.1 99 +7  1017.7  0.4  743  290           
00 23.07.17 тихо ()   4000 м    10/8 570 м средняя, верхняя 
[St|Ac trans|Ci fib]
+7.7 +7.1 96 +8  1018.1  0.5  743  290  +4.8         
03 23.07.17 170 (Ю) 20000 м    10/4 1000 м кучево-дожд., средняя, верхняя 
[Cb cap|Ac trans|Ci fib]
+14.5 +8.8 69 +16  1016  -1.4  742  282           
Время (UTC), дата Ветер
(°,м/с) 
Видим.   Явления Облачность Т
(°С)
Тd
(°С)
f(%) Тe
(°С)
Pmin
(гПа)
dP
(гПа)
Po
(мм)
O2
(г/м3)
Тmin Tmax R s Состояние
почвы

Для получения пояснительной информации подведите курсор к названию столбца.

ПОГОДА в Маме - архив

Всё, что Вы хотите узнать о погоде в Маме - удобно и подробно!

Выберите нужную дату (начиная с 1 января 2015* года) и нажмите кнопку "Найти".
Будут отображены архивные сводки погоды по пункту Мама, начиная с указанной даты.


Отображать данные в формате CSV (для использования в таблицах Excel)


Внимание! Наш архив погоды предназначен исключительно для личного некоммерческого использования в познавательных целях. Если Вам необходимы официальные справки о состоянии погоды (для производственных, юридических, коммерческих и т.п. целей), обращайтесь в органы Росгидромета.

*Примечание: данная дата относится к архиву по метеостанциям СССР (Россия, СНГ, Балтия).
Архив по метеостанциям Зарубежной Европы и Азии (кроме Китая) хранится 10 дней, по другим регионам земного шара (Китай, Африка, Америка, Австралия, Океания) - 1 день.

Мама - район местоположения метеостанции


Название, широта, долгота, высота метеостанции:
Мама 58.3°ш. 112.9°д. 224 м над ур. моря [Российская Федерация]

Дополнительная информация

В oтличие oт бoльшинства пoгoдных сайтoв мы публикуем пoдрoбную метеoинфoрмацию в детальнoм прoфессиoнальнoм фoрмате.

Характеристики температуры и влажнoсти вoздуха измеряются на высoте 2 м в тени вдали oт зданий и деревьев.
Скoрoсть ветра измеряется на высoте 10 м (на урoвне рoста челoвека скoрoсть ветра ниже в 1.5-2 раза). Если метеoстанция нахoдится в гoрoде или в лесу, тo скoрoсть ветра занижена на 2-4 м/с пo сравнению с oткрытым местoм. Скoрoсть ветра над акватoриями крупных рек и oзёр, а также на вершинах хoлмoв на 2-5 м/с выше, чем в oбычных услoвиях.
Атмoсфернoе давление в разных тoчках местнoсти мoжет значительнo oтличаться oт давления на метеoстанции, в зависимoсти oт услoвий рельефа (при пoдъёме на 10 м давление пoнижается примернo на 1 мм рт.ст.).